GW0795 Weather Reports


Display with metric or nautical units.
time (UTC)temp
F
wind
direction
speed
MPH
gust
MPH
rain 1hr
in
rain 24hr
in
rain mn
in
humidity
%
barometer
mb
20260510213007 63 129 3.0 9.0 0.00 0.00 0.00 60 1020.2
20260510212503 62 188 2.0 9.0 0.00 0.00 0.00 62 1020.0
20260510212010 64 302 3.0 9.0 0.00 0.00 0.00 60 1020.0
20260510211529 64 240 2.0 10.0 0.00 0.00 0.00 63 1020.1
20260510211013 61 227 3.0 10.0 0.00 0.00 0.00 65 1020.2
20260510210509 62 164 3.0 8.0 0.00 0.00 0.00 63 1020.3
20260510210020 62 167 4.0 8.0 0.00 0.00 0.00 62 1020.2
20260510205507 62 163 5.0 8.0 0.00 0.00 0.00 63 1020.1
20260510205004 62 203 1.0 6.0 0.00 0.00 0.00 64 1020.0
20260510204504 62 216 2.0 4.0 0.00 0.00 0.00 63 1020.0
20260510204003 61 184 2.0 6.0 0.00 0.00 0.00 68 1019.9
20260510203503 60 220 2.0 6.0 0.00 0.00 0.00 70 1020.1
20260510203009 59 86 2.0 4.0 0.00 0.00 0.00 70 1020.0
20260510202502 59 184 1.0 6.0 0.00 0.00 0.00 71 1020.2
20260510202007 59 290 3.0 6.0 0.00 0.00 0.00 70 1020.1
20260510201511 60 238 2.0 6.0 0.00 0.00 0.00 70 1020.0
20260510201007 59 219 2.0 6.0 0.00 0.00 0.00 72 1019.9
20260510200506 60 216 2.0 6.0 0.00 0.00 0.00 70 1019.8
20260510200018 59 174 2.0 6.0 0.00 0.00 0.00 72 1019.9
20260510195507 59 205 2.0 4.0 0.00 0.00 0.00 72 1019.9
20260510195008 58 246 1.0 7.0 0.00 0.00 0.00 72 1019.8
20260510194527 58 121 2.0 7.0 0.00 0.00 0.00 74 1019.8
20260510194007 58 150 2.0 7.0 0.00 0.00 0.00 72 1019.7
20260510193504 58 164 2.0 7.0 0.00 0.00 0.00 74 1019.6
20260510193003 57 144 3.0 5.0 0.00 0.00 0.00 75 1019.7
20260510192503 58 167 0.0 3.0 0.00 0.00 0.00 75 1019.6
20260510192004 57 148 1.0 6.0 0.00 0.00 0.00 76 1019.7
20260510191521 56 142 2.0 6.0 0.00 0.00 0.00 76 1019.7
20260510191003 57 190 2.0 6.0 0.00 0.00 0.00 76 1019.8
20260510190504 56 205 2.0 6.0 0.00 0.00 0.00 78 1019.8
20260510190015 56 219 2.0 4.0 0.00 0.00 0.00 77 1019.6
20260510185509 56 289 1.0 6.0 0.00 0.00 0.00 78 1019.7
20260510185011 55 195 2.0 7.0 0.00 0.00 0.00 78 1019.7
20260510184518 55 179 3.0 7.0 0.00 0.00 0.00 78 1019.8
20260510184009 56 211 1.0 5.0 0.00 0.00 0.00 79 1019.8
20260510183515 56 190 1.0 4.0 0.00 0.00 0.00 80 1019.6
20260510183024 56 178 1.0 3.0 0.00 0.00 0.00 79 1019.6
20260510182506 56 146 0.0 2.0 0.00 0.00 0.00 79 1019.5
20260510182003 56 232 1.0 6.0 0.00 0.00 0.00 78 1019.7
20260510181508 56 146 0.0 6.0 0.00 0.00 0.00 81 1019.7
20260510181003 56 216 1.0 4.0 0.00 0.00 0.00 80 1019.4
20260510180507 55 248 0.0 5.0 0.00 0.00 0.00 82 1019.2
20260510180011 55 206 2.0 5.0 0.00 0.00 0.00 82 1019.2
20260510175509 55 173 1.0 5.0 0.00 0.00 0.00 83 1019.1
20260510175006 54 209 1.0 5.0 0.00 0.00 0.00 84 1019.2
20260510174528 54 192 0.0 4.0 0.00 0.00 0.00 84 1019.1
20260510174005 53 124 1.0 4.0 0.00 0.00 0.00 84 1019.2
20260510173510 53 171 1.0 4.0 0.00 0.00 0.00 85 1019.0
20260510173017 54 172 1.0 2.0 0.00 0.00 0.00 85 1019.4
20260510172510 54 289 0.0 2.0 0.00 0.00 0.00 85 1019.4
20260510172010 54 175 0.0 2.0 0.00 0.00 0.00 85 1019.4
20260510171526 53 224 0.0 2.0 0.00 0.00 0.00 85 1019.2
20260510171010 53 194 0.0 2.0 0.00 0.00 0.00 86 1019.1
20260510170505 53 151 1.0 4.0 0.00 0.00 0.00 86 1019.1
20260510170011 53 151 1.0 4.0 0.00 0.00 0.00 86 1019.2
20260510165503 53 171 0.0 3.0 0.00 0.00 0.00 86 1019.3
20260510165006 53 167 0.0 3.0 0.00 0.00 0.00 86 1019.3
20260510164523 53 222 0.0 5.0 0.00 0.00 0.00 85 1019.2
20260510164006 54 214 2.0 5.0 0.00 0.00 0.00 84 1018.9
20260510163507 54 222 1.0 5.0 0.00 0.00 0.00 84 1018.8
20260510163016 55 215 1.0 6.0 0.00 0.00 0.00 83 1018.7
20260510162506 54 163 3.0 6.0 0.00 0.00 0.00 84 1018.6
20260510162010 53 108 1.0 2.0 0.00 0.00 0.00 85 1018.0
20260510161526 53 90 1.0 2.0 0.00 0.00 0.00 86 1018.0
20260510161011 52 74 1.0 2.0 0.00 0.00 0.00 87 1018.2
20260510160508 52 49 0.0 2.0 0.00 0.00 0.00 86 1018.3
20260510160026 53 349 1.0 3.0 0.00 0.00 0.00 87 1018.3
20260510155510 52 290 1.0 3.0 0.00 0.00 0.00 87 1018.3
20260510155007 52 294 1.0 4.0 0.00 0.00 0.00 87 1018.3
20260510154512 52 288 1.0 4.0 0.00 0.00 0.00 86 1018.2
20260510154011 53 92 0.0 2.0 0.00 0.00 0.00 87 1018.2
20260510153510 53 155 0.0 2.0 0.00 0.00 0.00 86 1018.3
20260510153018 53 296 0.0 3.0 0.00 0.00 0.00 87 1018.3
20260510152506 53 331 0.0 3.0 0.00 0.00 0.00 87 1018.1
20260510152011 53 203 0.0 3.0 0.00 0.00 0.00 88 1018.1
20260510151520 52 278 1.0 3.0 0.00 0.00 0.00 87 1017.9
20260510151006 52 295 0.0 2.0 0.00 0.00 0.00 88 1017.8
20260510150507 52 286 0.0 2.0 0.00 0.00 0.00 88 1017.8
20260510150004 52 318 1.0 2.0 0.00 0.00 0.00 88 1017.7
20260510145504 52 314 1.0 2.0 0.00 0.00 0.00 89 1017.7
20260510145003 52 286 0.0 2.0 0.00 0.00 0.00 90 1017.9
20260510144514 51 188 0.0 2.0 0.00 0.00 0.00 90 1017.9
20260510144008 51 200 0.0 2.0 0.00 0.00 0.00 90 1018.0
20260510143507 52 198 1.0 2.0 0.00 0.00 0.00 90 1018.1
20260510143032 52 192 0.0 2.0 0.00 0.00 0.00 90 1018.1
20260510142510 51 138 0.0 1.0 0.00 0.00 0.00 90 1018.1
20260510142008 51 153 0.0 0.0 0.00 0.00 0.00 90 1018.0
20260510141519 51 153 0.0 0.0 0.00 0.00 0.00 90 1017.8
20260510141011 51 97 0.0 0.0 0.00 0.00 0.00 90 1017.8
20260510140507 51 97 0.0 1.0 0.00 0.00 0.00 90 1017.6
20260510140023 51 97 0.0 2.0 0.00 0.00 0.00 90 1017.4
20260510135509 51 97 0.0 2.0 0.00 0.00 0.00 90 1017.1
20260510135008 50 95 0.0 0.0 0.00 0.00 0.00 90 1016.7
20260510134508 50 90 0.0 0.0 0.00 0.00 0.00 91 1016.8
20260510134003 50 5 0.0 0.0 0.00 0.00 0.00 91 1017.1
20260510133503 49 5 0.0 0.0 0.00 0.00 0.00 91 1017.3
20260510133014 49 304 0.0 0.0 0.00 0.00 0.00 91 1017.5
20260510132508 48 304 0.0 0.0 0.00 0.00 0.00 91 1017.5
20260510132009 48 304 0.0 0.0 0.00 0.00 0.00 91 1017.5
20260510131517 48 304 0.0 0.0 0.00 0.00 0.00 91 1017.7
20260510131011 48 304 0.0 0.0 0.00 0.00 0.00 91 1017.8
20260510130508 48 304 0.0 0.0 0.00 0.00 0.00 92 1017.8
20260510130024 47 304 0.0 0.0 0.00 0.00 0.00 91 1017.9
20260510125508 47 304 0.0 0.0 0.00 0.00 0.00 92 1017.7
20260510125011 47 304 0.0 0.0 0.00 0.00 0.00 92 1017.8
20260510124527 47 304 0.0 0.0 0.00 0.00 0.00 91 1018.0
20260510124013 47 304 0.0 0.0 0.00 0.00 0.00 91 1017.7
20260510123516 47 295 0.0 0.0 0.00 0.00 0.00 91 1017.6
20260510123024 47 277 0.0 0.0 0.00 0.00 0.00 91 1017.7
20260510122505 47 277 0.0 0.0 0.00 0.00 0.00 90 1017.7
20260510122004 47 277 0.0 0.0 0.00 0.00 0.00 91 1017.5
20260510121513 48 277 0.0 0.0 0.00 0.00 0.00 91 1017.5
20260510121007 47 277 0.0 0.0 0.00 0.00 0.00 91 1017.5
20260510120510 48 277 0.0 0.0 0.00 0.00 0.00 92 1017.5
20260510120023 48 277 0.0 0.0 0.00 0.00 0.00 91 1017.5
20260510115507 47 277 0.0 0.0 0.00 0.00 0.00 91 1017.5
20260510115012 48 277 0.0 0.0 0.00 0.00 0.00 91 1017.3
20260510114524 47 277 0.0 0.0 0.00 0.00 0.00 90 1017.2
20260510114009 48 277 0.0 0.0 0.00 0.00 0.00 91 1017.3
20260510113512 48 277 0.0 0.0 0.00 0.00 0.00 91 1017.5
20260510113026 48 277 0.0 0.0 0.00 0.00 0.00 91 1017.6
20260510112509 48 277 0.0 0.0 0.00 0.00 0.00 91 1017.6
20260510112010 48 277 0.0 0.0 0.00 0.00 0.00 91 1017.6
20260510111512 48 277 0.0 0.0 0.00 0.00 0.00 91 1017.5
20260510111004 48 277 0.0 0.0 0.00 0.00 0.00 90 1017.6
20260510110511 48 277 0.0 0.0 0.00 0.00 0.00 90 1017.5
20260510110031 48 277 0.0 0.0 0.00 0.00 0.00 90 1017.5
20260510105509 48 277 0.0 0.0 0.00 0.00 0.00 89 1017.4
20260510105008 49 277 0.0 0.0 0.00 0.00 0.00 90 1017.3
20260510104521 48 277 0.0 0.0 0.00 0.00 0.00 90 1017.3
20260510104007 49 277 0.0 0.0 0.00 0.00 0.00 90 1017.1
20260510103508 49 277 0.0 0.0 0.00 0.00 0.00 89 1017.0
20260510103026 49 277 0.0 0.0 0.00 0.00 0.00 90 1017.2
20260510102509 49 277 0.0 0.0 0.00 0.00 0.00 90 1017.2
20260510102010 49 277 0.0 0.0 0.00 0.00 0.00 89 1017.0
20260510101528 49 277 0.0 0.0 0.00 0.00 0.00 89 1017.0
20260510101009 49 277 0.0 0.0 0.00 0.00 0.00 90 1017.1
20260510100507 49 277 0.0 0.0 0.00 0.00 0.00 89 1017.1
20260510100026 50 277 0.0 0.0 0.00 0.00 0.00 89 1017.0
20260510095505 49 277 0.0 0.0 0.00 0.00 0.00 89 1017.0
20260510095011 50 277 0.0 0.0 0.00 0.00 0.00 88 1016.8
20260510094540 50 277 0.0 0.0 0.00 0.00 0.00 89 1016.7
20260510094009 50 277 0.0 0.0 0.00 0.00 0.00 89 1016.7
20260510093510 50 277 0.0 0.0 0.00 0.00 0.00 88 1016.6
20260510093021 50 277 0.0 0.0 0.00 0.00 0.00 88 1016.6
20260510092512 50 277 0.0 0.0 0.00 0.00 0.00 87 1016.6
20260510092016 50 277 0.0 0.0 0.00 0.00 0.00 87 1016.5
20260510091536 50 277 0.0 0.0 0.00 0.00 0.00 87 1016.5
20260510091008 50 277 0.0 0.0 0.00 0.00 0.00 87 1016.5
20260510090508 50 277 0.0 0.0 0.00 0.00 0.00 86 1016.4
20260510090027 50 277 0.0 0.0 0.00 0.00 0.00 85 1016.5
20260510085511 50 277 0.0 0.0 0.00 0.00 0.00 84 1016.4
20260510085015 51 277 0.0 0.0 0.00 0.00 0.00 83 1016.4
20260510084502 51 277 0.0 0.0 0.00 0.00 0.00 83 1016.5
20260510084002 51 277 0.0 0.0 0.00 0.00 0.00 83 1016.5
20260510083501 51 277 0.0 0.0 0.00 0.00 0.00 83 1016.4
20260510083004 51 277 0.0 0.0 0.00 0.00 0.00 83 1016.4
20260510082501 51 277 0.0 0.0 0.00 0.00 0.00 82 1016.3
20260510082001 52 277 0.0 0.0 0.00 0.00 0.00 82 1016.3
20260510081508 52 277 0.0 0.0 0.00 0.00 0.00 82 1016.3
20260510081005 52 277 0.0 0.0 0.00 0.00 0.00 80 1016.2
20260510080504 53 277 0.0 0.0 0.00 0.00 0.00 80 1016.2
20260510080013 52 277 0.0 0.0 0.00 0.00 0.00 81 1016.2
20260510075504 52 277 0.0 0.0 0.00 0.00 0.00 81 1016.2
20260510075004 52 277 0.0 0.0 0.00 0.00 0.00 81 1016.3
20260510074512 52 277 0.0 0.0 0.00 0.00 0.00 81 1016.3
20260510074006 52 277 0.0 0.0 0.00 0.00 0.00 82 1016.3
20260510073501 52 277 0.0 0.0 0.00 0.00 0.00 82 1016.2
20260510073006 52 277 0.0 0.0 0.00 0.00 0.00 82 1016.2
20260510072502 52 277 0.0 0.0 0.00 0.00 0.00 81 1016.3
20260510072002 53 277 0.0 0.0 0.00 0.00 0.00 81 1016.3
20260510071506 53 277 0.0 0.0 0.00 0.00 0.00 81 1016.3
20260510071001 53 277 0.0 0.0 0.00 0.00 0.00 81 1016.3
20260510070505 53 277 0.0 0.0 0.00 0.00 0.00 80 1016.3
20260510070020 53 277 0.0 0.0 0.00 0.00 0.00 81 1016.3
20260510065507 54 277 0.0 0.0 0.00 0.00 0.00 80 1016.3
20260510065005 54 277 0.0 0.0 0.00 0.00 0.00 80 1016.3
20260510064512 54 277 0.0 0.0 0.00 0.00 0.00 80 1016.2
20260510064004 54 277 0.0 0.0 0.00 0.00 0.00 80 1016.3
20260510063504 54 277 0.0 0.0 0.00 0.00 0.00 81 1016.4
20260510063013 54 277 0.0 0.0 0.00 0.00 0.00 80 1016.3
20260510062505 54 277 0.0 0.0 0.00 0.00 0.00 80 1016.3
20260510062001 54 277 0.0 0.0 0.00 0.00 0.00 79 1016.4
20260510061501 55 277 0.0 0.0 0.00 0.00 0.00 79 1016.3
20260510061003 55 277 0.0 0.0 0.00 0.00 0.00 79 1016.4
20260510060502 55 277 0.0 0.0 0.00 0.00 0.00 78 1016.3
20260510060008 55 277 0.0 0.0 0.00 0.00 0.00 78 1016.3
20260510055504 55 277 0.0 0.0 0.00 0.00 0.00 78 1016.2
20260510055004 56 277 0.0 0.0 0.00 0.00 0.00 77 1016.3
20260510054510 56 277 0.0 0.0 0.00 0.00 0.00 77 1016.3
20260510054006 56 277 0.0 0.0 0.00 0.00 0.00 77 1016.2
20260510053504 56 277 0.0 0.0 0.00 0.00 0.00 78 1016.2
20260510053042 56 277 0.0 0.0 0.00 0.00 0.00 78 1016.2
20260510052504 56 277 0.0 0.0 0.00 0.00 0.00 77 1016.2
20260510052008 56 277 0.0 0.0 0.00 0.00 0.00 76 1016.3
20260510051516 56 277 0.0 0.0 0.00 0.00 0.00 77 1016.3
20260510051005 56 277 0.0 0.0 0.00 0.00 0.00 75 1016.2
20260510050502 56 277 0.0 0.0 0.00 0.00 0.00 76 1016.2
20260510050005 56 277 0.0 0.0 0.00 0.00 0.00 76 1016.3
20260510045504 57 277 0.0 0.0 0.00 0.00 0.00 76 1016.3
20260510045006 57 277 0.0 0.0 0.00 0.00 0.00 76 1016.3
20260510044510 57 277 0.0 0.0 0.00 0.00 0.00 76 1016.3
20260510044004 57 277 0.0 0.0 0.00 0.00 0.00 75 1016.3
20260510043504 57 277 0.0 0.0 0.00 0.00 0.00 75 1016.3
20260510043024 58 277 0.0 0.0 0.00 0.00 0.00 75 1016.3
20260510042506 58 277 0.0 0.0 0.00 0.00 0.00 75 1016.3
20260510042008 58 277 0.0 0.0 0.00 0.00 0.00 75 1016.3
20260510041523 57 277 0.0 0.0 0.00 0.00 0.00 76 1016.3
20260510041005 58 277 0.0 0.0 0.00 0.00 0.00 75 1016.2
20260510040505 58 277 0.0 0.0 0.00 0.00 0.00 75 1016.2
20260510040031 58 277 0.0 0.0 0.00 0.00 0.00 74 1016.1
20260510035509 59 277 0.0 0.0 0.00 0.00 0.00 74 1016.1
20260510035004 59 277 0.0 0.0 0.00 0.00 0.00 73 1016.1
20260510034505 59 277 0.0 0.0 0.00 0.00 0.00 72 1016.1
20260510034004 60 277 0.0 0.0 0.00 0.00 0.00 71 1016.1
20260510033503 60 277 0.0 0.0 0.00 0.00 0.00 71 1016.1
20260510033010 60 277 0.0 0.0 0.00 0.00 0.00 70 1016.1
20260510032505 60 277 0.0 0.0 0.00 0.00 0.00 70 1016.0
20260510032009 61 277 0.0 0.0 0.00 0.00 0.00 68 1016.2
20260510031518 61 277 0.0 0.0 0.00 0.00 0.00 68 1016.2
20260510031007 61 277 0.0 0.0 0.00 0.00 0.00 68 1016.3
20260510030505 61 277 0.0 0.0 0.00 0.00 0.00 69 1016.3
20260510030020 61 277 0.0 0.0 0.00 0.00 0.00 68 1016.3
20260510025508 61 277 0.0 0.0 0.00 0.00 0.00 68 1016.3
20260510025008 62 277 0.0 0.0 0.00 0.00 0.00 66 1016.3
20260510024518 62 277 0.0 0.0 0.00 0.00 0.00 65 1016.3
20260510024010 63 277 0.0 2.0 0.00 0.00 0.00 64 1016.4
20260510023504 64 277 0.0 2.0 0.00 0.00 0.00 63 1016.5
20260510023008 65 271 1.0 2.0 0.00 0.00 0.00 60 1016.5
20260510022505 65 320 0.0 2.0 0.00 0.00 0.00 58 1016.5
20260510022007 66 347 1.0 2.0 0.00 0.00 0.00 55 1016.5
20260510021522 66 306 0.0 2.0 0.00 0.00 0.00 55 1016.5
20260510021004 66 352 0.0 2.0 0.00 0.00 0.00 56 1016.5
20260510020506 65 323 0.0 2.0 0.00 0.00 0.00 55 1016.5
20260510020018 65 285 0.0 2.0 0.00 0.00 0.00 56 1016.5
20260510015507 65 287 1.0 2.0 0.00 0.00 0.00 57 1016.6
20260510015007 65 360 0.0 2.0 0.00 0.00 0.00 58 1016.8
20260510014523 64 290 1.0 3.0 0.00 0.00 0.00 59 1016.9
20260510014008 64 312 2.0 3.0 0.00 0.00 0.00 58 1017.1
20260510013509 65 281 1.0 3.0 0.00 0.00 0.00 59 1017.1
20260510013025 64 291 2.0 3.0 0.00 0.00 0.00 58 1017.2
20260510012507 65 260 0.0 4.0 0.00 0.00 0.00 58 1017.2
20260510012006 65 290 2.0 4.0 0.00 0.00 0.00 57 1017.2
20260510011509 66 312 2.0 4.0 0.00 0.00 0.00 57 1017.3
20260510011004 66 286 2.0 6.0 0.00 0.00 0.00 56 1017.3
20260510010506 66 282 3.0 6.0 0.00 0.00 0.00 55 1017.4
20260510010014 66 317 2.0 3.0 0.00 0.00 0.00 55 1017.3
20260510005509 66 309 1.0 3.0 0.00 0.00 0.00 56 1017.3
20260510005005 66 277 1.0 4.0 0.00 0.00 0.00 57 1017.3
20260510004527 66 305 1.0 4.0 0.00 0.00 0.00 55 1017.3
20260510004009 66 334 1.0 3.0 0.00 0.00 0.00 56 1017.4
20260510003508 66 300 1.0 4.0 0.00 0.00 0.00 54 1017.5
20260510003021 65 291 1.0 4.0 0.00 0.00 0.00 54 1017.5
20260510002510 66 292 1.0 6.0 0.00 0.00 0.00 54 1017.5
20260510002011 66 285 1.0 6.0 0.00 0.00 0.00 56 1017.7
20260510001524 67 288 1.0 4.0 0.00 0.00 0.00 53 1017.7
20260510001008 66 261 1.0 4.0 0.00 0.00 0.00 52 1017.6
20260510000504 67 329 2.0 4.0 0.00 0.00 0.00 51 1017.7
20260510000018 67 286 1.0 3.0 0.00 0.00 0.00 52 1017.8
20260509235511 67 273 1.0 4.0 0.00 0.00 0.00 51 1017.9
20260509235008 67 257 2.0 4.0 0.00 0.00 0.00 50 1017.8
20260509234518 67 265 0.0 4.0 0.00 0.00 0.00 51 1017.8
20260509234013 67 263 1.0 3.0 0.00 0.00 0.00 49 1017.9
20260509233508 68 263 1.0 4.0 0.00 0.00 0.00 46 1018.1
20260509233022 67 360 1.0 5.0 0.00 0.00 0.00 43 1018.1
20260509232508 68 348 1.0 5.0 0.00 0.00 0.00 43 1018.0
20260509232008 67 263 2.0 5.0 0.00 0.00 0.00 44 1018.1
20260509231525 67 341 2.0 5.0 0.00 0.00 0.00 46 1018.3
20260509231011 67 45 1.0 7.0 0.00 0.00 0.00 47 1018.2
20260509230511 67 286 3.0 7.0 0.00 0.00 0.00 47 1018.3
20260509230026 67 331 2.0 7.0 0.00 0.00 0.00 46 1018.4
20260509225506 67 13 3.0 7.0 0.00 0.00 0.00 47 1018.6
20260509225007 67 20 1.0 7.0 0.00 0.00 0.00 48 1018.7
20260509224517 67 15 1.0 4.0 0.00 0.00 0.00 49 1018.7
20260509224008 67 259 2.0 4.0 0.00 0.00 0.00 50 1018.9
20260509223501 67 234 2.0 8.0 0.00 0.00 0.00 50 1019.0
20260509223004 66 275 0.0 8.0 0.00 0.00 0.00 50 1018.9
20260509222503 66 290 2.0 4.0 0.00 0.00 0.00 49 1018.9
20260509222006 66 281 1.0 4.0 0.00 0.00 0.00 51 1019.1
20260509221503 67 241 2.0 5.0 0.00 0.00 0.00 48 1019.2
20260509221004 66 325 1.0 6.0 0.00 0.00 0.00 49 1019.2
20260509220504 66 292 2.0 6.0 0.00 0.00 0.00 48 1019.2
20260509220010 67 286 3.0 6.0 0.00 0.00 0.00 49 1019.2
20260509215507 66 289 2.0 6.0 0.00 0.00 0.00 49 1019.1
20260509215009 66 273 1.0 4.0 0.00 0.00 0.00 50 1019.2
20260509214514 66 275 2.0 6.0 0.00 0.00 0.00 49 1019.2
20260509214007 65 275 2.0 6.0 0.00 0.00 0.00 51 1019.3
20260509213508 65 313 3.0 5.0 0.00 0.00 0.00 52 1019.4
20260509213026 66 240 2.0 5.0 0.00 0.00 0.00 52 1019.4